Total_Precipitation_Accumulation
0.89 0.88 0.90 1.00 0.97 0.87 0.83 0.93 1.14 1.33 1.48 1.64 1.82 1.99 2.11 2.15 2.07 2.01 2.03 1.96 1.82 1.90 2.03 2.03 2.26 2.28 2.23 2.26 2.20 2.39 2.47 2.22 2.05 2.41 2.32 1.88 1.55 1.41 1.49 1.57 1.64 1.78 1.81
0.76 0.79 0.76 0.77 0.78 0.77 0.77 0.87 1.06 1.34 1.54 1.72 1.94 2.14 2.49 2.62 2.54 2.51 2.36 2.27 2.20 2.26 2.17 2.28 2.52 2.53 2.61 2.68 2.53 2.72 2.89 2.61 2.30 2.78 3.27 2.83 2.31 1.64 1.39 1.49 1.65 1.86 1.91
0.62 0.68 0.65 0.63 0.61 0.62 0.68 0.80 0.93 1.15 1.48 1.82 2.09 2.31 2.55 2.80 2.85 2.70 2.60 2.52 2.55 2.62 2.55 2.53 2.68 2.70 2.76 2.92 2.92 2.90 3.09 3.08 2.76 2.72 3.31 3.30 2.91 2.41 1.81 1.63 1.69 1.89 2.00
0.63 0.63 0.61 0.62 0.60 0.64 0.72 0.84 0.93 1.08 1.28 1.55 1.95 2.33 2.60 2.93 2.94 2.76 2.73 2.72 2.73 2.74 2.70 2.71 2.82 2.85 2.82 2.89 2.90 2.89 3.21 3.50 3.33 3.04 2.77 2.70 2.72 2.79 2.42 1.98 1.80 1.90 1.99
0.65 0.63 0.63 0.63 0.67 0.71 0.77 0.89 0.99 1.15 1.30 1.56 1.90 2.29 2.55 2.78 2.94 2.88 2.70 2.62 2.66 2.54 2.42 2.54 2.74 2.78 2.80 2.81 2.95 3.02 3.30 3.38 3.34 3.28 3.15 2.94 2.72 2.32 2.41 2.38 2.13 2.05 1.94
0.65 0.68 0.72 0.74 0.73 0.79 0.88 1.00 1.14 1.33 1.48 1.59 1.72 1.89 2.11 2.46 2.62 2.72 2.70 2.65 2.65 2.47 2.28 2.33 2.44 2.57 2.67 2.66 2.71 2.87 3.02 3.26 3.41 3.35 3.20 3.21 3.15 2.90 2.66 2.34 2.22 2.33 2.19
0.73 0.80 0.89 0.90 0.89 0.90 1.05 1.17 1.28 1.36 1.41 1.39 1.44 1.58 1.77 2.04 2.19 2.28 2.39 2.43 2.47 2.43 2.39 2.28 2.30 2.36 2.43 2.58 2.81 2.83 2.88 3.03 3.21 3.24 3.19 3.19 3.05 2.98 2.95 2.68 2.32 2.24 2.14
0.85 0.99 1.11 1.17 1.11 1.10 1.13 1.16 1.24 1.23 1.24 1.28 1.35 1.43 1.56 1.74 1.83 1.91 2.03 2.08 2.03 1.99 1.99 2.03 2.12 2.24 2.30 2.40 2.61 2.73 2.75 2.79 2.81 2.81 3.00 3.12 3.01 2.82 2.74 2.74 2.79 2.52 2.27
0.99 1.17 1.35 1.40 1.29 1.22 1.20 1.23 1.32 1.28 1.21 1.25 1.39 1.46 1.51 1.53 1.55 1.61 1.57 1.57 1.60 1.60 1.61 1.65 1.80 1.99 2.11 2.16 2.29 2.48 2.49 2.58 2.59 2.63 2.69 2.72 2.80 2.68 2.51 2.49 2.61 2.75 2.52
1.21 1.37 1.48 1.47 1.42 1.45 1.43 1.29 1.27 1.32 1.28 1.40 1.46 1.44 1.43 1.40 1.42 1.45 1.47 1.43 1.50 1.56 1.61 1.61 1.61 1.72 1.81 1.92 2.09 2.21 2.28 2.37 2.34 2.33 2.38 2.43 2.50 2.50 2.45 2.44 2.50 2.53 2.50
1.38 1.45 1.53 1.51 1.41 1.40 1.39 1.37 1.33 1.31 1.34 1.39 1.45 1.37 1.37 1.40 1.39 1.37 1.42 1.48 1.53 1.62 1.61 1.62 1.64 1.64 1.71 1.78 1.87 1.99 2.11 2.12 2.14 2.02 2.03 2.16 2.26 2.46 2.50 2.47 2.45 2.45 2.38
1.36 1.40 1.51 1.49 1.38 1.35 1.24 1.28 1.37 1.37 1.44 1.48 1.42 1.36 1.46 1.51 1.56 1.55 1.49 1.50 1.49 1.46 1.51 1.60 1.54 1.52 1.57 1.66 1.77 1.86 1.89 1.93 1.88 1.78 1.80 1.91 1.99 2.15 2.28 2.41 2.32 2.34 2.33
1.13 1.11 1.23 1.35 1.31 1.26 1.18 1.26 1.32 1.37 1.40 1.47 1.50 1.40 1.33 1.39 1.47 1.55 1.52 1.48 1.45 1.44 1.51 1.61 1.66 1.55 1.46 1.54 1.61 1.70 1.72 1.70 1.60 1.56 1.62 1.68 1.76 1.87 1.99 2.10 2.20 2.23 2.22
0.90 0.86 0.89 1.02 1.03 1.04 1.11 1.18 1.31 1.46 1.50 1.50 1.48 1.46 1.44 1.49 1.47 1.43 1.40 1.39 1.37 1.32 1.34 1.45 1.53 1.54 1.47 1.41 1.39 1.40 1.57 1.58 1.48 1.36 1.34 1.36 1.39 1.51 1.66 1.78 1.94 2.11 2.25
0.72 0.75 0.74 0.80 0.83 0.85 0.92 1.00 1.10 1.32 1.45 1.53 1.52 1.45 1.42 1.40 1.43 1.41 1.28 1.24 1.16 1.14 1.20 1.34 1.49 1.54 1.50 1.50 1.48 1.38 1.41 1.47 1.50 1.44 1.32 1.20 1.21 1.34 1.43 1.50 1.75 1.97 2.13
0.59 0.62 0.64 0.68 0.74 0.75 0.82 0.85 0.97 1.14 1.25 1.30 1.35 1.45 1.44 1.31 1.25 1.25 1.23 1.16 1.08 1.05 1.05 1.13 1.26 1.40 1.37 1.58 1.62 1.50 1.37 1.37 1.38 1.38 1.35 1.35 1.32 1.19 1.16 1.23 1.40 1.65 1.84
0.51 0.51 0.51 0.57 0.66 0.74 0.77 0.83 0.96 1.09 1.14 1.20 1.24 1.30 1.31 1.22 1.15 1.09 1.05 1.04 1.00 1.03 1.03 1.10 1.21 1.33 1.53 1.64 1.46 1.52 1.45 1.39 1.39 1.34 1.33 1.35 1.32 1.39 1.24 1.20 1.21 1.22 1.40
0.39 0.47 0.47 0.46 0.51 0.60 0.74 0.90 0.96 0.97 0.99 1.06 1.11 1.08 1.08 1.07 1.07 0.97 0.95 0.96 0.99 1.03 1.05 1.12 1.19 1.26 1.48 1.59 1.41 1.60 1.61 1.56 1.49 1.43 1.46 1.50 1.51 1.44 1.55 1.51 1.39 1.26 1.23
0.29 0.36 0.40 0.40 0.41 0.45 0.52 0.60 0.69 0.77 0.79 0.88 0.93 0.94 0.94 0.94 0.95 0.93 1.02 1.05 1.02 1.04 1.05 1.04 1.05 1.08 1.19 1.34 1.28 1.43 1.52 1.62 1.60 1.47 1.43 1.47 1.47 1.72 1.83 1.65 1.55 1.43 1.33
0.19 0.24 0.28 0.30 0.30 0.33 0.37 0.45 0.52 0.61 0.68 0.76 0.81 0.87 0.90 0.92 0.97 1.12 1.24 1.26 1.19 1.08 1.01 0.98 0.94 0.95 0.99 1.22 1.13 1.24 1.28 1.44 1.58 1.55 1.48 1.65 1.57 1.63 1.64 1.52 1.67 1.58 1.41
0.16 0.19 0.22 0.24 0.26 0.28 0.31 0.37 0.44 0.45 0.50 0.57 0.68 0.82 0.94 0.98 1.10 1.26 1.30 1.26 1.19 1.06 0.95 0.92 0.91 0.90 0.98 1.21 1.20 1.27 1.27 1.36 1.44 1.47 1.47 1.43 1.60 1.46 1.45 1.47 1.53 1.66 1.63
0.21 0.20 0.20 0.20 0.24 0.28 0.30 0.35 0.43 0.43 0.49 0.52 0.57 0.67 0.83 0.96 1.10 1.25 1.25 1.24 1.21 1.11 0.98 0.96 0.94 0.96 1.07 1.15 1.20 1.25 1.31 1.37 1.37 1.30 1.18 1.19 1.36 1.26 1.24 1.24 1.34 1.55 1.59
0.25 0.23 0.21 0.20 0.22 0.26 0.33 0.36 0.40 0.42 0.45 0.49 0.48 0.53 0.64 0.78 0.97 1.08 1.11 1.12 1.14 1.10 1.03 0.97 0.93 0.95 1.03 1.17 1.36 1.27 1.18 1.16 1.15 1.13 1.16 1.11 1.09 1.09 1.02 1.07 1.22 1.31 1.45
0.24 0.22 0.22 0.22 0.23 0.26 0.30 0.36 0.42 0.44 0.44 0.45 0.48 0.49 0.51 0.56 0.66 0.76 0.87 0.95 0.98 0.97 0.96 0.96 0.95 0.97 0.98 0.98 1.10 1.17 1.11 1.03 0.99 0.96 0.91 0.92 0.93 0.94 0.93 0.93 0.96 1.04 1.33
0.28 0.26 0.25 0.27 0.26 0.27 0.29 0.34 0.38 0.42 0.44 0.46 0.51 0.53 0.55 0.58 0.59 0.60 0.66 0.74 0.77 0.88 0.96 0.95 0.96 0.95 0.93 0.96 1.09 1.10 1.06 1.09 1.12 1.14 1.03 0.98 0.92 0.91 0.91 0.92 0.97 1.11 1.26
0.30 0.30 0.31 0.32 0.30 0.31 0.32 0.35 0.35 0.39 0.41 0.43 0.44 0.44 0.48 0.53 0.55 0.57 0.61 0.69 0.70 0.78 0.80 0.80 0.81 0.76 0.83 0.94 0.95 0.96 0.99 1.05 1.17 1.21 1.14 1.17 1.13 1.09 1.07 1.03 1.00 1.03 1.12